User: anonymous   Login
Location: Walnut Point State Park
(39.6958°N, 88.0345°W)
Time: 14:49:59
(UTC-05:00)
Language:

ATLAS 3B R/B - Orbit

View from above orbital plane
View from above orbital plane
View from above satellite
View from above satellite

Ground track
Ground track

The orbit data is extracted from the following two-line orbital elements,

1 28538U 05004B   16240.05419880 0.00000000  00000-0  00000-0 0    06
2 28538  63.8228 318.1136 0170000 196.4733 163.5267 13.43087590    01
Epoch (UTC): 27 August 2016 01:18:02
Eccentricity: 0.0170000
inclination: 63.8228°
perigee height: 971 km
apogee height: 1225 km
right ascension of ascending node: 318.1136°
argument of perigee: 196.4733°
revolutions per day: 13.43087590
mean anomaly at epoch: 163.5267°
orbit number at epoch: 0

The dashed part of the orbit path shows where the satellite is in the earth's shadow,  

DLR